period_start,C,m1,H,J0,J1,J2,J3,J4,J5,JA,JB,JC,JD,JJ,JK,JN,#
2017-01-23 00:02:11,0.27,2.19,0.00,19.14,22.43,26.23,14.68,50.13,1008.82,2048.10,2800.95,2507.24,2855.28,600.27,599.55,7.40,0000 0000 0000 0000 000000
2017-01-23 00:07:12,0.28,2.20,0.00,19.13,22.44,26.23,14.65,50.10,1008.82,2048.04,2796.48,2503.93,2851.43,600.05,599.34,7.45,0000 0000 0000 0000 000000
2017-01-23 00:12:13,0.29,2.21,0.00,19.14,22.46,26.21,14.61,50.27,1008.85,2048.02,2791.98,2500.56,2847.53,600.00,599.30,7.50,0000 0000 0000 0000 000000
2017-01-23 00:17:15,0.29,2.23,0.00,19.13,22.47,26.29,14.63,49.98,1008.80,2048.01,2787.54,2497.28,2843.67,600.34,599.64,7.55,0000 0000 0000 0000 000000
2017-01-23 00:22:16,0.31,2.24,0.00,19.14,22.48,26.27,14.66,50.09,1008.77,2048.01,2782.83,2493.83,2839.50,600.27,599.49,7.60,0000 0000 0000 0000 000000
2017-01-23 00:27:18,0.31,2.26,0.00,19.13,22.49,26.29,14.65,50.24,1008.72,2048.00,2777.99,2490.13,2835.23,599.98,599.18,7.65,0000 0000 0000 0000 000000
2017-01-23 00:32:19,0.30,2.28,0.00,19.14,22.50,26.28,14.66,50.17,1008.58,2048.00,2773.40,2486.70,2831.24,600.00,599.11,7.70,0000 0000 0000 0000 000000
2017-01-23 00:37:20,0.30,2.29,0.00,19.13,22.52,26.25,14.66,50.13,1008.67,2047.99,2768.87,2483.17,2827.28,599.90,599.16,7.75,0000 0000 0000 0000 000000
2017-01-23 00:42:21,0.30,2.31,0.00,19.14,22.52,26.27,14.59,50.17,1008.55,2047.99,2764.33,2479.65,2823.21,599.65,598.79,7.80,0000 0000 0000 0000 000000
2017-01-23 00:47:22,0.31,2.32,0.00,19.14,22.53,26.27,14.66,50.13,1008.53,2047.99,2759.60,2476.11,2819.07,600.19,599.33,7.85,0000 0000 0000 0000 000000
2017-01-23 00:52:24,0.32,2.34,0.00,19.16,22.54,26.28,14.61,50.20,1008.68,2047.98,2754.94,2472.54,2815.01,600.18,599.25,7.90,0000 0000 0000 0000 000000
2017-01-23 00:57:25,0.31,2.35,0.00,19.17,22.55,26.29,14.63,50.24,1008.64,2047.98,2750.39,2468.84,2810.83,599.72,598.84,7.95,0000 0000 0000 0000 000000
2017-01-23 01:02:26,0.34,2.37,0.00,19.17,22.56,26.28,14.66,50.18,1008.46,2047.97,2745.44,2464.85,2806.31,600.06,598.96,8.00,0000 0000 0000 0000 000000
2017-01-23 01:07:27,0.29,2.39,0.00,19.16,22.57,26.28,14.63,50.29,1008.39,2047.85,2740.77,2461.23,2802.17,600.06,598.93,8.05,0000 0000 0000 0000 000000
2017-01-23 01:12:28,0.31,2.40,0.00,19.18,22.57,26.26,14.65,50.42,1008.32,2047.74,2736.05,2457.67,2798.10,600.13,598.98,8.10,0000 0000 0000 0000 000000
2017-01-23 01:17:30,0.33,2.42,0.00,19.17,22.59,26.29,14.66,50.37,1008.32,2047.78,2731.07,2454.05,2793.89,600.32,599.22,8.15,0000 0000 0000 0000 000000
2017-01-23 01:22:31,0.35,2.43,0.00,19.17,22.59,26.29,14.65,50.29,1008.31,2047.77,2726.07,2450.28,2789.44,599.89,598.81,8.20,0000 0000 0000 0000 000000
2017-01-23 01:27:32,0.34,2.45,0.00,19.17,22.59,26.35,14.65,50.44,1008.31,2047.70,2720.93,2446.28,2784.84,600.01,598.92,8.25,0000 0000 0000 0000 000000
2017-01-23 01:32:34,0.29,2.47,0.00,19.17,22.60,26.29,14.64,50.23,1008.31,2047.25,2715.87,2442.39,2780.36,599.91,598.84,8.30,0000 0000 0000 0000 000000
2017-01-23 01:37:35,0.31,2.48,0.00,19.14,22.61,26.28,14.74,50.26,1008.31,2047.13,2711.02,2438.70,2776.06,600.58,599.54,8.35,0000 0000 0000 0000 000000
2017-01-23 01:42:36,0.32,2.50,0.00,19.14,22.62,26.30,14.69,50.17,1008.30,2047.15,2706.29,2435.11,2771.94,600.38,599.36,8.40,0000 0000 0000 0000 000000
2017-01-23 01:47:38,0.31,2.52,0.00,19.15,22.62,26.27,14.66,50.25,1008.31,2047.09,2701.54,2431.63,2767.89,600.04,598.90,8.45,0000 0000 0000 0000 000000
2017-01-23 01:52:39,0.34,2.53,0.00,19.15,22.62,26.24,14.62,50.40,1008.03,2047.04,2696.63,2427.91,2763.61,599.74,598.47,8.50,0000 0000 0000 0000 000000
2017-01-23 01:57:40,0.33,2.55,0.00,19.15,22.62,26.32,14.64,50.36,1007.86,2047.04,2691.70,2424.15,2759.28,600.06,598.74,8.55,0000 0000 0000 0000 000000
2017-01-23 02:02:41,0.34,2.57,0.00,19.16,22.62,26.30,14.65,50.41,1007.85,2047.03,2686.82,2420.43,2755.01,599.83,598.49,8.60,0000 0000 0000 0000 000000
2017-01-23 02:07:42,0.35,2.58,0.00,19.17,22.63,26.27,14.65,50.31,1007.84,2047.01,2681.80,2416.54,2750.67,600.22,598.76,8.65,0000 0000 0000 0000 000000
2017-01-23 02:12:44,0.36,2.60,0.00,19.15,22.64,26.26,14.64,50.38,1007.83,2047.01,2676.75,2412.68,2746.31,600.07,598.72,8.70,0000 0000 0000 0000 000000
2017-01-23 02:17:44,0.35,2.62,0.00,19.16,22.64,26.26,14.60,50.48,1007.78,2047.00,2671.63,2408.85,2741.86,599.51,598.11,8.75,0000 0000 0000 0000 000000
2017-01-23 02:22:46,0.34,2.64,0.00,19.15,22.64,26.26,14.64,50.20,1007.77,2047.00,2666.65,2405.12,2737.54,600.12,598.75,8.80,0000 0000 0000 0000 000000
2017-01-23 02:27:47,0.34,2.65,0.00,19.14,22.64,26.29,14.61,50.35,1007.68,2047.00,2661.79,2401.53,2733.36,599.80,598.39,8.85,0000 0000 0000 0000 000000
2017-01-23 02:32:48,0.34,2.67,0.00,19.14,22.64,26.34,14.60,50.23,1007.65,2047.00,2656.83,2397.79,2729.17,600.02,598.68,8.90,0000 0000 0000 0000 000000
2017-01-23 02:37:50,0.36,2.69,0.00,19.15,22.65,26.32,14.62,50.45,1007.38,2047.00,2651.72,2393.97,2724.79,599.70,598.10,8.95,0000 0000 0000 0000 000000
2017-01-23 02:42:51,0.36,2.71,0.00,19.18,22.65,26.28,14.60,50.28,1007.38,2047.00,2646.50,2390.04,2720.23,599.92,598.25,9.00,0000 0000 0000 0000 000000
2017-01-23 02:47:52,0.36,2.73,0.00,19.19,22.66,26.26,14.56,50.36,1007.35,2047.00,2641.36,2386.16,2715.70,599.72,597.96,9.05,0000 0000 0000 0000 000000
2017-01-23 02:52:53,0.38,2.75,0.00,19.19,22.67,26.31,14.55,50.58,1007.35,2047.00,2636.11,2382.17,2711.18,600.05,598.35,9.10,0000 0000 0000 0000 000000
2017-01-23 02:57:54,0.37,2.77,0.00,19.19,22.67,26.33,14.66,50.55,1007.35,2047.00,2630.87,2378.18,2706.64,600.04,598.38,9.15,0000 0000 0000 0000 000000
2017-01-23 03:02:56,0.38,2.78,0.00,19.19,22.67,26.29,14.63,50.58,1007.34,2047.00,2625.63,2374.12,2702.11,599.86,598.15,9.20,0000 0000 0000 0000 000000
2017-01-23 03:07:57,0.38,2.80,0.00,19.20,22.67,26.31,14.57,50.66,1007.34,2047.00,2620.40,2369.94,2697.35,599.81,598.14,9.25,0000 0000 0000 0000 000000
2017-01-23 03:12:58,0.40,2.82,0.00,19.20,22.67,26.34,14.57,50.42,1007.34,2047.00,2614.78,2365.71,2692.31,599.57,598.11,9.30,0000 0000 0000 0000 000000
2017-01-23 03:18:00,0.37,2.84,0.00,19.22,22.68,26.33,14.63,50.53,1007.33,2047.00,2609.48,2361.77,2687.76,599.90,598.13,9.35,0000 0000 0000 0000 000000
2017-01-23 03:23:01,0.38,2.86,0.00,19.22,22.69,26.33,14.62,50.55,1007.33,2047.00,2604.22,2357.84,2683.28,600.00,598.22,9.41,0000 0000 0000 0000 000000
2017-01-23 03:28:02,0.40,2.88,0.00,19.24,22.69,26.31,14.56,50.52,1007.34,2047.00,2598.80,2353.70,2678.55,599.71,597.89,9.46,0000 0000 0000 0000 000000
2017-01-23 03:33:04,0.38,2.90,0.00,19.24,22.69,26.31,14.58,50.36,1007.34,2047.00,2593.44,2349.70,2673.95,599.92,598.12,9.51,0000 0000 0000 0000 000000
2017-01-23 03:38:05,0.38,2.92,0.00,19.24,22.69,26.34,14.57,50.43,1007.26,2047.00,2588.08,2345.72,2669.37,599.84,597.99,9.56,0000 0000 0000 0000 000000
2017-01-23 03:43:06,0.39,2.94,0.00,19.25,22.69,26.34,14.57,50.57,1006.97,2047.00,2582.67,2341.71,2664.78,599.78,597.72,9.61,0000 0000 0000 0000 000000
2017-01-23 03:48:08,0.39,2.96,0.00,19.26,22.69,26.35,14.67,50.72,1006.87,2047.00,2577.19,2337.61,2660.06,600.17,598.05,9.66,0000 0000 0000 0000 000000
2017-01-23 03:53:09,0.38,2.98,0.00,19.27,22.70,26.37,14.58,50.36,1007.15,2047.00,2571.85,2333.55,2655.42,599.76,597.79,9.71,0000 0000 0000 0000 000000
2017-01-23 03:58:10,0.38,3.00,0.00,19.27,22.70,26.35,14.59,50.41,1007.08,2047.00,2566.74,2329.73,2651.02,599.70,597.72,9.76,0000 0000 0000 0000 000000
2017-01-23 04:03:11,0.40,3.02,0.00,19.27,22.70,26.33,14.63,50.54,1006.88,2047.00,2561.39,2325.65,2646.40,600.30,598.14,9.81,0000 0000 0000 0000 000000
2017-01-23 04:08:13,0.39,3.04,0.00,19.26,22.71,26.35,14.67,50.50,1006.85,2047.00,2556.10,2321.50,2641.67,600.44,598.12,9.86,0000 0000 0000 0000 000000
2017-01-23 04:13:14,0.40,3.06,0.00,19.26,22.72,26.34,14.60,50.36,1006.85,2047.00,2550.72,2317.42,2637.06,599.98,597.76,9.91,0000 0000 0000 0000 000000
2017-01-23 04:18:15,0.38,3.08,0.00,19.27,22.72,26.38,14.68,50.38,1006.85,2047.00,2545.47,2313.47,2632.52,599.96,597.81,9.96,0000 0000 0000 0000 000000
2017-01-23 04:23:17,0.38,3.10,0.00,19.26,22.72,26.38,14.59,50.23,1006.85,2047.00,2540.30,2309.62,2628.11,599.89,597.71,10.01,0000 0000 0000 0000 000000
2017-01-23 04:28:18,0.38,3.12,0.00,19.28,22.72,26.46,14.65,50.11,1006.89,2046.99,2535.08,2305.76,2623.74,599.96,597.90,10.06,0000 0000 0000 0000 000000
2017-01-23 04:33:19,0.39,3.14,0.00,19.28,22.72,26.38,14.62,50.24,1006.86,2046.99,2529.77,2301.90,2619.35,599.92,597.77,10.11,0000 0000 0000 0000 000000
2017-01-23 04:38:20,0.40,3.16,0.00,19.27,22.72,26.40,14.68,50.38,1006.85,2046.98,2524.40,2297.98,2614.81,600.29,598.14,10.16,0000 0000 0000 0000 000000
2017-01-23 04:43:21,0.40,3.18,0.00,19.28,22.72,26.38,14.62,50.41,1006.80,2046.98,2519.04,2294.00,2610.26,599.98,597.77,10.21,0000 0000 0000 0000 000000
2017-01-23 04:48:22,0.40,3.20,0.00,19.28,22.73,26.41,14.59,50.42,1006.78,2046.98,2513.57,2289.96,2605.62,600.26,597.94,10.26,0000 0000 0000 0000 000000
2017-01-23 04:53:24,0.40,3.22,0.00,19.26,22.73,26.36,14.57,50.65,1006.84,2046.97,2508.16,2285.94,2601.03,599.91,597.76,10.31,0000 0000 0000 0000 000000
2017-01-23 04:58:25,0.40,3.24,0.00,19.27,22.74,26.34,14.61,50.47,1006.85,2046.96,2502.82,2281.89,2596.47,599.99,597.83,10.36,0000 0000 0000 0000 000000
2017-01-23 05:03:26,0.40,3.26,0.00,19.27,22.74,26.39,14.66,50.41,1006.85,2046.95,2497.57,2277.95,2591.95,600.05,597.90,10.41,0000 0000 0000 0000 000000
2017-01-23 05:08:27,0.39,3.28,0.00,19.24,22.74,26.37,14.59,50.23,1006.85,2046.93,2492.42,2274.01,2587.39,599.73,597.69,10.46,0000 0000 0000 0000 000000
2017-01-23 05:13:29,0.39,3.30,0.00,19.24,22.74,26.37,14.58,50.14,1006.85,2046.91,2487.22,2270.10,2583.00,599.89,597.83,10.51,0000 0000 0000 0000 000000
2017-01-23 05:18:30,0.40,3.32,0.00,19.25,22.74,26.38,14.62,50.39,1006.85,2046.87,2481.95,2266.17,2578.54,599.85,597.73,10.56,0000 0000 0000 0000 000000
2017-01-23 05:23:31,0.39,3.34,0.00,19.24,22.74,26.36,14.66,50.48,1006.85,2046.84,2476.82,2262.42,2574.20,600.07,597.93,10.61,0000 0000 0000 0000 000000
2017-01-23 05:28:32,0.37,3.36,0.00,19.27,22.74,26.36,14.57,50.33,1006.85,2046.87,2471.72,2258.67,2569.95,600.02,597.75,10.66,0000 0000 0000 0000 000000
2017-01-23 05:33:34,0.39,3.38,0.00,19.24,22.74,26.41,14.67,50.48,1006.86,2046.84,2466.54,2254.87,2565.61,600.20,598.10,10.71,0000 0000 0000 0000 000000
2017-01-23 05:38:35,0.41,3.40,0.00,19.23,22.74,26.40,14.73,50.51,1006.86,2046.90,2461.30,2250.99,2561.16,600.85,598.78,10.76,0000 0000 0000 0000 000000
2017-01-23 05:43:37,0.39,3.42,0.00,19.24,22.74,26.43,14.57,50.41,1006.85,2046.87,2456.11,2247.17,2557.01,599.54,597.46,10.81,0000 0000 0000 0000 000000
2017-01-23 05:48:38,0.37,3.44,0.00,19.27,22.74,26.40,14.54,50.63,1006.83,2046.70,2450.95,2243.38,2552.68,599.60,597.50,10.86,0000 0000 0000 0000 000000
2017-01-23 05:53:39,0.38,3.46,0.00,19.28,22.75,26.39,14.62,50.49,1006.80,2046.53,2445.76,2239.62,2548.28,599.99,597.74,10.91,0000 0000 0000 0000 000000
2017-01-23 05:58:41,0.39,3.48,0.00,19.29,22.75,26.38,14.56,50.58,1006.83,2046.48,2440.58,2235.93,2543.89,599.62,597.41,10.96,0000 0000 0000 0000 000000
2017-01-23 06:03:42,0.40,3.50,0.00,19.30,22.76,26.40,14.65,50.47,1006.83,2046.41,2435.37,2232.13,2539.47,600.25,598.14,11.01,0000 0000 0000 0000 000000
2017-01-23 06:08:43,0.40,3.52,0.00,19.29,22.77,26.42,14.65,50.48,1006.85,2046.36,2430.22,2228.32,2535.09,600.28,597.95,11.06,0000 0000 0000 0000 000000
2017-01-23 06:13:44,0.40,3.54,0.00,19.31,22.77,26.43,14.61,50.35,1006.85,2046.33,2424.98,2224.46,2530.69,600.11,597.86,11.11,0000 0000 0000 0000 000000
2017-01-23 06:18:46,0.42,3.56,0.00,19.32,22.77,26.47,14.63,50.32,1006.85,2046.28,2419.69,2220.57,2526.22,600.26,597.91,11.16,0000 0000 0000 0000 000000
2017-01-23 06:23:47,0.42,3.58,0.00,19.32,22.78,26.53,14.60,50.53,1006.80,2046.17,2414.11,2216.45,2521.49,599.83,597.72,11.21,0000 0000 0000 0000 000000
2017-01-23 06:28:49,0.43,3.60,0.00,19.33,22.79,26.51,14.65,50.50,1006.83,2046.05,2408.52,2212.32,2516.77,600.01,597.78,11.26,0000 0000 0000 0000 000000
2017-01-23 06:33:50,0.45,3.62,0.00,19.33,22.79,26.47,14.65,50.60,1006.84,2046.06,2402.97,2208.16,2512.09,600.05,597.75,11.31,0000 0000 0000 0000 000000
2017-01-23 06:38:51,0.49,3.65,0.00,19.34,22.79,26.53,14.70,50.68,1006.74,2046.01,2396.91,2203.80,2506.86,600.32,597.85,11.36,0000 0000 0000 0000 000000
2017-01-23 06:43:53,0.48,3.67,0.00,19.33,22.79,26.48,14.63,50.80,1006.41,2046.01,2390.85,2199.31,2501.61,600.05,597.50,11.41,0000 0000 0000 0000 000000
2017-01-23 06:48:54,0.47,3.70,0.00,19.34,22.80,26.46,14.56,50.83,1006.37,2046.01,2384.97,2194.91,2496.65,599.87,597.12,11.46,0000 0000 0000 0000 000000
2017-01-23 06:53:55,0.48,3.72,0.00,19.33,22.80,26.46,14.57,50.91,1006.36,2046.01,2378.98,2190.44,2491.59,599.71,597.18,11.51,0000 0000 0000 0000 000000
2017-01-23 06:58:56,0.48,3.75,0.00,19.34,22.80,26.49,14.69,51.02,1006.36,2046.02,2373.04,2186.04,2486.46,600.38,597.76,11.56,0000 0000 0000 0000 000000
2017-01-23 07:03:58,0.48,3.77,0.00,19.34,22.81,26.47,14.57,50.83,1006.35,2046.00,2367.14,2181.56,2481.37,600.19,597.54,11.61,0000 0000 0000 0000 000000
2017-01-23 07:08:59,0.49,3.80,0.00,19.31,22.81,26.43,14.63,50.82,1006.35,2046.00,2361.18,2177.08,2476.23,599.88,597.41,11.66,0000 0000 0000 0000 000000
2017-01-23 07:14:00,0.47,3.82,0.00,19.31,22.82,26.43,14.59,50.80,1006.36,2046.00,2355.31,2172.84,2471.24,599.64,597.15,11.71,0000 0000 0000 0000 000000
2017-01-23 07:19:01,0.49,3.84,0.00,19.32,22.82,26.45,14.60,50.68,1006.36,2046.00,2349.36,2168.48,2466.22,600.25,597.70,11.76,0000 0000 0000 0000 000000
2017-01-23 07:24:02,0.51,3.87,0.00,19.31,22.82,26.44,14.58,50.89,1006.34,2046.00,2343.40,2163.84,2460.94,600.09,597.57,11.82,0000 0000 0000 0000 000000
2017-01-23 07:29:03,0.49,3.89,0.00,19.31,22.82,26.44,14.62,50.83,1006.27,2046.00,2337.51,2159.48,2455.91,600.03,597.59,11.87,0000 0000 0000 0000 000000
2017-01-23 07:34:05,0.50,3.92,0.00,19.30,22.81,26.48,14.65,50.91,1006.23,2046.00,2331.52,2155.00,2450.82,600.11,597.52,11.92,0000 0000 0000 0000 000000
2017-01-23 07:39:06,0.53,3.94,0.00,19.30,22.81,26.52,14.54,50.84,1006.22,2046.00,2325.42,2150.43,2445.59,599.54,596.94,11.97,0000 0000 0000 0000 000000
2017-01-23 07:44:07,0.51,3.97,0.00,19.31,22.80,26.43,14.60,50.67,1006.16,2045.99,2319.19,2145.79,2440.24,600.13,597.40,12.02,0000 0000 0000 0000 000000
2017-01-23 07:49:08,0.49,4.00,0.00,19.31,22.80,26.42,14.59,50.66,1006.30,2045.99,2313.39,2141.46,2435.35,599.94,597.29,12.07,0000 0000 0000 0000 000000
2017-01-23 07:54:09,0.66,4.03,0.00,19.31,22.80,26.45,14.58,50.92,1006.35,2046.00,2306.22,2135.82,2429.31,599.88,597.39,12.12,0000 0000 0000 0000 000000
2017-01-23 07:59:10,0.48,4.05,0.43,19.32,22.79,26.42,14.58,50.67,1006.36,2046.00,2300.53,2130.91,2423.83,599.88,597.33,12.17,0000 0000 0000 0000 000000
2017-01-23 08:04:12,0.57,4.08,1.00,19.30,22.79,26.46,14.57,50.65,1006.36,2046.00,2294.33,2126.21,2418.46,599.80,597.32,12.22,0000 0000 0000 0000 000000
2017-01-23 08:09:13,0.65,4.11,1.00,19.31,22.79,26.43,14.60,50.58,1006.36,2046.00,2286.73,2120.15,2411.90,600.00,597.45,12.27,0000 0000 0000 0000 000000
2017-01-23 08:14:15,0.52,4.14,1.00,19.30,22.79,26.44,14.62,50.40,1006.36,2046.00,2280.65,2115.63,2406.71,599.55,596.98,12.32,0000 0000 0000 0000 000000
2017-01-23 08:19:16,0.49,4.17,1.00,19.32,22.79,26.39,14.59,50.68,1006.36,2046.00,2274.73,2111.31,2401.68,599.87,597.30,12.37,0000 0000 0000 0000 000000
2017-01-23 08:24:18,0.51,4.19,1.00,19.32,22.79,26.40,14.64,50.50,1006.38,2046.00,2268.76,2107.09,2396.62,599.99,597.48,12.42,0000 0000 0000 0000 000000
2017-01-23 08:29:19,0.50,4.22,1.00,19.31,22.79,26.39,14.61,50.32,1006.48,2045.99,2262.93,2102.77,2391.67,600.27,597.87,12.47,0000 0000 0000 0000 000000
2017-01-23 08:34:20,0.50,4.24,1.00,19.33,22.79,26.43,14.59,50.39,1006.44,2045.99,2257.15,2098.43,2386.76,599.81,597.20,12.52,0000 0000 0000 0000 000000
2017-01-23 08:39:22,0.51,4.27,1.00,19.34,22.79,26.40,14.58,50.65,1006.39,2045.99,2251.28,2094.10,2381.75,599.76,597.14,12.57,0000 0000 0000 0000 000000
2017-01-23 08:44:23,0.52,4.29,1.00,19.35,22.79,26.40,14.58,50.52,1006.60,2045.99,2245.38,2089.72,2376.71,600.14,597.77,12.62,0000 0000 0000 0000 000000
2017-01-23 08:49:24,0.51,4.32,1.00,19.35,22.79,26.38,14.57,50.46,1006.50,2045.99,2239.55,2085.31,2371.67,599.64,597.11,12.67,0000 0000 0000 0000 000000
2017-01-23 08:54:26,0.50,4.35,1.00,19.36,22.79,26.44,14.65,50.59,1006.43,2045.99,2233.95,2081.05,2366.89,599.94,597.34,12.72,0000 0000 0000 0000 000000
2017-01-23 08:59:28,0.52,4.37,1.00,19.37,22.80,26.45,14.72,50.59,1006.54,2045.98,2228.21,2076.72,2362.06,600.63,598.06,12.77,0000 0000 0000 0000 000000
2017-01-23 09:04:29,0.52,4.40,1.00,19.41,22.80,26.44,14.63,50.49,1006.78,2045.99,2222.39,2072.38,2357.12,600.13,597.55,12.82,0000 0000 0000 0000 000000
2017-01-23 09:09:30,0.49,4.42,1.00,19.43,22.81,26.45,14.59,50.46,1006.82,2045.98,2216.73,2068.17,2352.35,599.90,597.40,12.87,0000 0000 0000 0000 000000
2017-01-23 09:14:32,0.53,4.45,1.00,19.44,22.82,26.47,14.59,50.58,1006.84,2045.96,2210.96,2063.85,2347.37,599.58,597.09,12.92,0000 0000 0000 0000 000000
2017-01-23 09:19:33,0.51,4.47,1.00,19.44,22.82,26.49,14.59,50.29,1006.83,2045.87,2205.12,2059.51,2342.41,600.14,597.62,12.97,0000 0000 0000 0000 000000
2017-01-23 09:24:34,0.51,4.50,1.00,19.47,22.83,26.52,14.50,50.25,1006.85,2045.85,2199.42,2055.31,2337.58,599.70,597.17,13.02,0000 0000 0000 0000 000000
2017-01-23 09:29:36,0.48,4.53,1.00,19.46,22.84,26.54,14.63,50.26,1006.85,2045.69,2193.81,2051.12,2332.75,599.83,597.28,13.07,0000 0000 0000 0000 000000
2017-01-23 09:34:37,0.49,4.55,1.00,19.50,22.84,26.56,14.61,50.33,1006.85,2045.58,2188.21,2047.04,2327.96,600.25,597.63,13.12,0000 0000 0000 0000 000000
2017-01-23 09:39:38,0.51,4.58,1.00,19.50,22.86,26.60,14.64,50.43,1006.85,2045.23,2182.41,2042.67,2323.00,600.20,597.60,13.17,0000 0000 0000 0000 000000
2017-01-23 09:44:39,0.52,4.60,1.00,19.53,22.87,26.58,14.64,50.42,1006.85,2045.10,2176.62,2038.18,2318.04,600.15,597.40,13.22,0000 0000 0000 0000 000000
2017-01-23 09:49:40,0.51,4.63,1.00,19.56,22.87,26.63,14.59,50.32,1006.85,2045.05,2171.07,2034.00,2313.24,600.00,597.16,13.27,0000 0000 0000 0000 000000
2017-01-23 09:54:41,0.50,4.65,1.00,19.59,22.89,26.65,14.66,50.23,1006.99,2045.03,2165.55,2029.86,2308.54,600.18,597.49,13.32,0000 0000 0000 0000 000000
2017-01-23 09:59:43,0.53,4.68,1.00,19.59,22.89,26.69,14.59,50.45,1007.15,2045.01,2159.90,2025.61,2303.72,599.82,597.20,13.37,0000 0000 0000 0000 000000
2017-01-23 10:04:44,0.52,4.71,1.00,19.61,22.91,26.65,14.67,50.38,1007.33,2045.01,2154.27,2021.44,2298.99,600.36,597.79,13.42,0000 0000 0000 0000 000000
2017-01-23 10:09:45,0.52,4.73,1.00,19.61,22.92,26.69,14.63,50.38,1007.13,2045.00,2148.68,2017.27,2294.19,600.21,597.52,13.47,0000 0000 0000 0000 000000
2017-01-23 10:14:47,0.54,4.76,1.00,19.62,22.94,26.72,14.60,50.45,1007.05,2045.00,2143.06,2013.00,2289.34,599.93,597.18,13.52,0000 0000 0000 0000 000000
2017-01-23 10:19:48,0.51,4.79,1.00,19.63,22.95,26.76,14.58,50.41,1007.04,2045.00,2137.61,2008.93,2284.71,600.06,597.22,13.57,0000 0000 0000 0000 000000
2017-01-23 10:24:49,0.53,4.81,1.00,19.65,22.96,26.77,14.68,50.52,1007.18,2045.00,2132.07,2004.80,2279.92,600.22,597.53,13.62,0000 0000 0000 0000 000000
2017-01-23 10:29:50,0.52,4.84,1.00,19.69,22.97,26.79,14.63,50.24,1007.26,2044.99,2126.52,2000.68,2275.21,599.88,597.18,13.67,0000 0000 0000 0000 000000
2017-01-23 10:34:51,0.51,4.87,1.00,19.70,22.99,26.79,14.52,50.23,1007.31,2044.98,2121.12,1996.63,2270.56,599.89,597.17,13.72,0000 0000 0000 0000 000000
2017-01-23 10:39:53,0.50,4.89,1.00,19.74,23.00,26.80,14.60,50.27,1007.25,2044.97,2115.83,1992.66,2266.00,600.19,597.37,13.77,0000 0000 0000 0000 000000
2017-01-23 10:44:54,0.51,4.92,1.00,19.75,23.02,26.83,14.62,50.38,1006.89,2044.94,2110.59,1988.66,2261.43,600.54,597.37,13.82,0000 0000 0000 0000 000000
2017-01-23 10:49:56,0.50,4.94,1.00,19.76,23.02,26.86,14.62,50.48,1006.90,2044.89,2105.36,1984.76,2256.85,599.78,596.66,13.87,0000 0000 0000 0000 000000
2017-01-23 10:54:57,0.46,4.97,1.00,19.76,23.04,26.88,14.54,50.48,1006.93,2044.63,2100.13,1980.94,2252.33,599.66,596.54,13.92,0000 0000 0000 0000 000000
2017-01-23 10:59:58,0.45,4.99,0.40,19.80,23.06,26.87,14.62,50.48,1007.15,2044.11,2094.92,1977.05,2247.78,600.10,597.02,13.97,0000 0000 0000 0000 000000
2017-01-23 11:04:59,0.49,5.01,0.00,19.82,23.07,26.87,14.62,50.40,1007.01,2044.04,2089.94,1973.39,2243.38,599.83,596.65,14.02,0000 0000 0000 0000 000000
2017-01-23 11:10:00,0.50,5.04,0.00,19.82,23.09,26.93,14.58,50.34,1006.87,2044.03,2084.77,1969.53,2239.04,600.13,596.91,14.07,0000 0000 0000 0000 000000
2017-01-23 11:15:02,0.51,5.06,0.00,19.82,23.10,26.97,14.59,50.47,1006.89,2044.01,2079.44,1965.54,2234.64,600.29,597.02,14.12,0000 0000 0000 0000 000000
2017-01-23 11:20:03,0.48,5.09,0.00,19.85,23.12,26.95,14.60,50.47,1006.94,2044.01,2074.53,1961.90,2230.41,600.01,596.76,14.18,0000 0000 0000 0000 000000
2017-01-23 11:25:04,0.49,5.11,0.00,19.87,23.13,26.99,14.62,50.24,1006.88,2044.00,2069.61,1958.18,2226.15,600.09,596.68,14.23,0000 0000 0000 0000 000000
2017-01-23 11:30:05,0.51,5.14,0.00,19.87,23.15,27.00,14.52,50.55,1006.84,2044.00,2064.55,1954.33,2221.73,599.87,596.55,14.28,0000 0000 0000 0000 000000
2017-01-23 11:35:06,0.51,5.17,0.00,19.89,23.17,27.02,14.57,50.67,1006.82,2043.99,2059.47,1950.44,2217.33,600.04,596.61,14.33,0000 0000 0000 0000 000000
2017-01-23 11:40:07,0.49,5.19,0.00,19.91,23.19,27.02,14.57,50.57,1006.85,2043.99,2054.59,1946.67,2213.09,599.64,596.18,14.38,0000 0000 0000 0000 000000
2017-01-23 11:45:09,0.51,5.22,0.00,19.90,23.20,27.07,14.65,50.42,1006.85,2043.97,2049.59,1942.90,2208.69,600.41,596.79,14.43,0000 0000 0000 0000 000000
2017-01-23 11:50:10,0.46,5.24,0.00,19.92,23.22,27.09,14.58,50.38,1006.86,2043.91,2044.93,1939.17,2204.42,599.80,596.34,14.48,0000 0000 0000 0000 000000
2017-01-23 11:55:11,0.47,5.26,0.00,19.95,23.23,27.08,14.61,50.30,1006.84,2043.75,2040.15,1935.55,2200.25,600.31,596.73,14.53,0000 0000 0000 0000 000000
2017-01-23 12:00:12,0.44,5.29,0.00,19.97,23.25,27.09,14.63,50.44,1006.83,2043.53,2035.46,1932.02,2196.21,600.26,596.66,14.58,0000 0000 0000 0000 000000
2017-01-23 12:05:13,0.46,5.31,0.00,19.95,23.27,27.12,14.61,50.45,1006.85,2043.32,2030.77,1928.45,2192.10,599.97,596.31,14.63,0000 0000 0000 0000 000000
2017-01-23 12:10:15,0.48,5.33,0.00,19.98,23.28,27.12,14.55,50.23,1006.85,2043.14,2026.00,1924.82,2187.96,600.14,596.57,14.68,0000 0000 0000 0000 000000
2017-01-23 12:15:16,0.48,5.36,0.00,19.96,23.29,27.13,14.62,50.27,1006.86,2043.02,2021.18,1921.17,2183.80,600.14,596.58,14.73,0000 0000 0000 0000 000000
2017-01-23 12:20:17,0.48,5.38,0.00,19.94,23.31,27.11,14.59,50.31,1006.86,2043.03,2016.44,1917.71,2179.73,599.86,596.52,14.78,0000 0000 0000 0000 000000
2017-01-23 12:25:19,0.48,5.41,0.00,19.95,23.32,27.15,14.64,50.47,1006.85,2043.02,2011.71,1914.15,2175.64,600.05,596.52,14.83,0000 0000 0000 0000 000000
2017-01-23 12:30:20,0.48,5.43,0.00,19.96,23.34,27.13,14.61,50.40,1006.86,2043.00,2007.02,1910.62,2171.65,600.03,596.39,14.88,0000 0000 0000 0000 000000
2017-01-23 12:35:21,0.47,5.45,0.00,19.97,23.35,27.16,14.52,50.35,1006.88,2043.00,2002.44,1907.12,2167.69,599.71,596.15,14.93,0000 0000 0000 0000 000000
2017-01-23 12:40:22,0.50,5.48,0.00,19.99,23.37,27.16,14.63,50.31,1006.88,2043.00,1997.83,1903.60,2163.63,600.14,596.46,14.98,0000 0000 0000 0000 000000
2017-01-23 12:45:24,0.47,5.50,0.00,19.99,23.37,27.17,14.53,50.27,1006.89,2042.99,1993.18,1900.08,2159.59,599.89,596.34,15.03,0000 0000 0000 0000 000000
2017-01-23 12:50:25,0.48,5.53,0.00,19.99,23.39,27.19,14.59,50.37,1006.90,2042.97,1988.57,1896.64,2155.59,600.09,596.48,15.08,0000 0000 0000 0000 000000
2017-01-23 12:55:27,0.47,5.55,0.00,20.03,23.40,27.17,14.56,50.36,1006.89,2042.93,1984.08,1893.17,2151.67,599.79,596.11,15.13,0000 0000 0000 0000 000000